Location: Newark
(25.4800°N, 85.7200°E)
Time: 06:20:00
(UTC+00:00)

S-56A Canister/Altair - All Passes

Search period start: 21 August 2019 00:00
Search period end: 31 August 2019 00:00
Orbit: 633 x 2499 km, 38.9° (Epoch: 19 August)

Date Brightness Start Highest point End Pass type
(mag) Time Alt. Az. Time Alt. Az. Time Alt. Az.
21 Aug - 12:39:09 10° SSW 12:44:36 26° SE 12:48:51 10° E daylight
21 Aug - 14:43:11 10° WSW 14:48:25 54° NNW 14:52:47 10° NE visible
21 Aug - 16:49:53 10° NW 16:52:52 17° N 16:55:56 10° NE visible
21 Aug - 18:54:16 10° NW 18:58:07 23° NNE 19:02:49 10° ENE night (unlit)
21 Aug - 20:56:53 10° NW 21:02:30 77° NNE 21:10:56 10° ESE visible
21 Aug - 23:00:59 10° W 23:07:10 30° SW 23:15:47 10° SSE visible
22 Aug - 12:06:24 10° SSW 12:11:54 23° SE 12:16:10 10° E daylight
22 Aug - 14:10:06 10° WSW 14:15:52 67° NNW 14:20:22 10° NE visible
22 Aug - 16:16:57 10° WNW 16:20:08 18° NNW 16:23:17 10° NNE visible
22 Aug - 18:21:56 10° NW 18:25:23 20° NNE 18:29:21 10° ENE night (unlit)
22 Aug - 20:24:33 10° NW 20:29:48 66° NNE 20:37:27 10° ESE visible
22 Aug - 22:28:19 10° W 22:34:14 33° SW 22:42:38 10° SSE visible
23 Aug - 11:33:39 10° S 11:39:08 21° SE 11:43:25 10° E daylight
23 Aug - 13:36:59 10° WSW 13:43:18 82° NNW 13:48:00 10° NE visible
23 Aug - 15:43:52 10° WNW 15:47:25 20° NNW 15:50:46 10° NNE visible
23 Aug - 17:49:33 10° NNW 17:52:38 18° NNE 17:56:02 10° NE night (unlit)
23 Aug - 19:52:14 10° NW 19:57:08 54° NNE 20:04:00 10° ESE visible
23 Aug - 21:55:43 10° W 22:01:22 37° SW 22:09:29 10° SSE visible
24 Aug - 11:00:55 10° S 11:06:18 19° SE 11:10:35 10° ESE daylight
24 Aug - 13:03:48 10° SW 13:10:42 84° SSE 13:15:36 10° ENE visible
24 Aug - 15:10:41 10° WNW 15:14:44 23° NNW 15:18:21 10° NE visible
24 Aug - 17:17:03 10° NNW 17:19:53 16° N 17:22:51 10° NE night (unlit)
24 Aug - 19:19:55 10° NW 19:24:30 45° NNE 19:30:36 10° E night (unlit)
24 Aug - 21:23:11 10° WNW 21:28:34 42° SW 21:36:21 10° SSE visible
25 Aug - 10:28:15 10° S 10:33:25 17° SE 10:37:38 10° ESE daylight
25 Aug - 12:30:35 10° SW 12:38:04 71° SSE 12:43:13 10° ENE daylight
25 Aug - 14:37:24 10° W 14:42:04 27° NNW 14:45:59 10° NE visible
25 Aug - 16:44:25 10° NW 16:47:06 15° N 16:49:50 10° NE visible
25 Aug - 18:47:36 10° NW 18:51:53 37° NNE 18:57:15 10° E night (unlit)
25 Aug - 20:50:41 10° WNW 20:55:50 48° SW 21:03:12 10° SE visible
25 Aug - 22:59:43 10° SW 23:00:43 10° SW 23:01:44 10° SSW visible
26 Aug - 09:55:41 10° S 10:00:29 15° SE 10:04:31 10° ESE daylight
26 Aug - 11:57:20 10° SW 12:05:22 61° SSE 12:10:48 10° ENE daylight
26 Aug - 14:04:02 10° W 14:09:25 32° NNW 14:13:41 10° NE visible
26 Aug - 16:11:37 10° NW 16:14:21 15° N 16:17:00 10° NE visible
26 Aug - 18:15:16 10° NW 18:19:16 31° NNE 18:23:59 10° E night (unlit)
26 Aug - 20:18:13 10° WNW 20:23:09 56° SSW 20:30:05 10° SE visible
26 Aug - 22:25:28 10° SW 22:27:47 12° SW 22:30:23 10° SSW visible
27 Aug - 09:23:17 10° S 09:27:30 13° SE 09:31:08 10° ESE daylight
27 Aug - 11:24:03 10° SW 11:32:37 53° SE 11:38:22 10° ENE daylight
27 Aug - 13:30:35 10° W 13:36:46 39° NNW 13:41:23 10° NE visible
27 Aug - 15:38:35 10° NW 15:41:34 16° N 15:44:22 10° NE visible
27 Aug - 17:42:53 10° NW 17:46:38 26° NNE 17:50:47 10° ENE night (unlit)
27 Aug - 19:45:47 10° WNW 19:50:32 66° SSW 19:57:01 10° SE night (unlit)
27 Aug - 21:52:02 10° WSW 21:54:56 13° SW 21:58:16 10° S visible
28 Aug - 08:51:14 10° SSE 08:54:27 12° SE 08:57:20 10° SE daylight
28 Aug - 10:50:46 10° SW 10:59:48 47° SE 11:05:52 10° ENE daylight
28 Aug - 12:57:04 10° W 13:04:06 47° NNW 13:09:05 10° NE visible
28 Aug - 15:05:23 10° NW 15:08:48 17° N 15:11:51 10° NE visible
28 Aug - 17:10:26 10° NW 17:13:59 22° NNE 17:17:41 10° ENE night (unlit)
28 Aug - 19:13:22 10° WNW 19:17:57 80° SSW 19:23:58 10° SE night (unlit)
28 Aug - 21:18:54 10° WSW 21:22:07 15° SW 21:25:56 10° S visible
29 Aug - 08:20:29 10° SSE 08:21:19 10° SE 08:22:07 10° SE daylight
29 Aug - 10:17:28 10° SSW 10:26:54 42° SE 10:33:19 10° ENE daylight
29 Aug - 12:23:30 10° WSW 12:31:24 56° NNW 12:36:47 10° NE daylight
29 Aug - 14:32:01 10° WNW 14:36:02 19° NNW 14:39:27 10° NE visible
29 Aug - 16:37:53 10° NW 16:41:17 20° NNE 16:44:40 10° ENE visible
29 Aug - 18:40:56 10° WNW 18:45:25 84° NNE 18:50:58 10° ESE night (unlit)
29 Aug - 20:45:56 10° WSW 20:49:21 17° SW 20:53:29 10° S night (unlit)
30 Aug - 09:44:11 10° SSW 09:53:57 38° SE 10:00:42 10° E daylight
30 Aug - 11:49:53 10° WSW 11:58:40 66° NNW 12:04:28 10° NE daylight
30 Aug - 13:58:31 10° WNW 14:03:16 22° NNW 14:07:07 10° NE visible
30 Aug - 16:05:13 10° NW 16:08:34 19° N 16:11:46 10° ENE visible
30 Aug - 18:08:29 10° NW 18:12:53 68° NNE 18:18:01 10° ESE night (unlit)
30 Aug - 20:13:04 10° W 20:16:39 19° SW 20:20:59 10° S night (unlit)
